Regional Weather Roundup
Issued by NWS Goodland, KS

Home | Current Version | Previous Version | Text Only | Print | Product List | Glossary On
Versions: 1 2 3 4 5 6 7 8 9 10 11 12 13 14 15 16 17 18 19 20 21 22 23 24 25 26 27 28 29 30 31 32 33 34 35 36 37 38 39 40 41 42 43 44 45 46 47 48 49 50
000
ASUS43 KGLD 011859
RWRGLD

GOODLAND FORECAST AREA HOURLY WEATHER ROUNDUP
NATIONAL WEATHER SERVICE GOODLAND KS
100 PM MDT SAT OCT 01 2016

...OFFICIAL OBSERVATIONS...

CITY           SKY/WX    TMP DP  RH WIND       PRES   REMARKS
GOODLAND KS    SUNNY     73  49  42 SE12G23   30.07F
HILL CITY KS   SUNNY     75  52  44 SE9       30.07F
IMPERIAL NEB   SUNNY     74  48  39 S17       30.07F
MCCOOK NEB     SUNNY     75  50  41 S12G21    30.06F
AKRON CO       SUNNY     77  43  29 MISG      30.08F
BURLINGTON CO  SUNNY     74  48  39 E13       30.08F
LIMON CO       SUNNY     76  40  27 W8        30.12F
$$

...UNOFFICIAL OBSERVATIONS...

CITY           SKY/WX    TMP DP  RH WIND       PRES   REMARKS
COLBY KS       SUNNY     77  52  41 SE16      30.08F
LENORA KS        N/A     71  32  23 MISG        N/A
NORTON KS      SUNNY     73  43  33 SE12      30.07
SHARON SPRINGS   N/A     72  54  52 SE6G15      N/A
KIT CARSON CO    N/A     73  51  46 CALM        N/A
$$



USA.gov is the U.S. government's official web portal to all federal, state and local government web resources and services.